Preview of NWS' New Version of Forecast
This preview is not operational and should not be used for support decisions.

Regional Weather Roundup (RWR)

Issued by National Weather Service (NWS)

                            
000
ASUS44 KMEG 211810
RWRTN 
TENNESSEE HOURLY STATE WEATHER ROUNDUP
NATIONAL WEATHER SERVICE MEMPHIS TN
100 PM CDT SAT SEP 21 2019

TNZ002-004-019-021-049-052-054-088>092-211900-
WEST TENNESSEE
  
CITY           SKY/WX    TMP DP  RH WIND       PRES   REMARKS
MEMPHIS INTL   FAIR      90  59  35 S13       30.19F                  
JACKSON        FAIR      89  61  38 S13G21    30.22F                  
DYERSBURG      FAIR      87  59  38 S9G16     30.20F                  
SOMERVILLE     SUNNY     88  59  37 S9G17     30.19F                  
COVINGTON      MOSUNNY   88  59  37 SW10G21   30.18F                  
UNION CITY     SUNNY     88  59  37 SW12G20   30.17F                  
BOLIVAR        MOSUNNY   86  59  39 VRB7G13   30.20F                  
PARIS          SUNNY     88  57  35 S12G17    30.20F                  
HUNTINGDON     SUNNY     86  59  39 S9        30.20F                  
LEXINGTON      SUNNY     88  55  33 SW9G20    30.21F                  
SELMER         MOSUNNY   86  57  37 VRB7      30.21F                  
SAVANNAH       MOSUNNY   88  59  37 S12       30.21F                  
$$

TNZ008-025-027-028-033-062-065-066-211900-
NORTH MIDDLE TENNESSEE
  
CITY           SKY/WX    TMP DP  RH WIND       PRES   REMARKS
NASHVILLE      FAIR      89  52  28 VRB5      30.24F                  
DICKSON        CLEAR     86  52  30 S6G16     30.22F                  
PORTLAND       SUNNY     86  57  37 S8G14     30.24F                  
CLARKSVILLE    FAIR      89  56  32 S15       30.21F                  
LEBANON        CLEAR     88  52  29 SE6       30.22F                  
SMYRNA         FAIR      87  56  34 VRB3      30.25F                  
MURFREESBORO   CLEAR     86  54  32 SW9       30.23F                  
COOKEVILLE     SUNNY     86  54  32 VRB3G12   30.27F                  
LIVINGSTON     CLEAR     84  52  32 VRB6      30.27F                  
CROSSVILLE     FAIR      80  53  39 VRB5      30.32F                  
ROCKWOOD       CLEAR     81  55  41 VRB6      30.31F                  
$$

TNZ061-075-076-078-094-096-097-211900-
SOUTH MIDDLE TENNESSEE
  
CITY           SKY/WX    TMP DP  RH WIND       PRES   REMARKS
LAWRENCEBURG   CLEAR     86  54  32 VRB3G12   30.24F                  
LEWISBURG      CLEAR     86  55  35 S9        30.24F                  
FAYETTEVILLE   SUNNY     84  54  34 CALM      30.26F                  
TULLAHOMA      SUNNY     84  54  34 SW6       30.26F                  
WINCHESTER     SUNNY     84  54  34 CALM      30.26F                  
MCMINNVILLE    SUNNY     86  52  30 SW7G13    30.26F                  
COLUMBIA       SUNNY     86  52  30 CALM      30.22F                  
SHELBYVILLE    SUNNY     86  54  32 S8        30.25F                  
$$

TNZ017-018-042-046-047-211900-
NORTHEAST TENNESSEE
  
CITY           SKY/WX    TMP DP  RH WIND       PRES   REMARKS
TRI CITIES     FAIR      84  61  45 NE3       30.30F                  
ELIZABETHTON   FAIR      82  59  44 CALM      30.29F                  
GREENEVILLE    CLEAR     81  57  44 NE5       30.30F                  
$$

TNZ012-013-036-069-073-074-211900-
CENTRAL EAST TENNESSEE
  
CITY           SKY/WX    TMP DP  RH WIND       PRES   REMARKS
KNOXVILLE      FAIR      84  55  36 VRB5      30.27F                  
OAK RIDGE      FAIR      84  57  39 SW5       30.29F                  
DOWNTOWN KNOXV SUNNY     84  59  42 NW3       30.28F                  
GATLINBURG     MOSUNNY   86  59  39 NW3       30.27F                  
MORRISTOWN     SUNNY     82  57  42 CALM      30.28F                  
JACKSBORO      SUNNY     84  59  42 CALM      30.31F                  
$$

TNZ083-085-099-211900-
SOUTHEAST TENNESSEE
  
CITY           SKY/WX    TMP DP  RH WIND       PRES   REMARKS
CHATTANOOGA    FAIR      86  56  35 SW6       30.27F                  
$$

SKY/WX REPORTED AS FAIR MEANS FEW OR NO CLOUDS BELOW
12 THOUSAND FEET.